Temp
22 24 22 21 21 21 21 21 22 23 22 20 21 22 24 25 24 23 22 21 21 20 20 18 16 14 13 12 11 11 11 10 10 10 10 10 9 9 9 9 8 7 7 7
23 21 21 21 21 21 22 22 22 23 23 21 22 23 25 23 22 21 21 21 20 19 19 18 16 14 13 12 11 11 11 10 9 10 10 10 10 10 9 9 7 7 7 7
21 20 20 20 21 20 22 20 20 20 21 23 22 24 24 23 23 21 20 19 19 18 18 17 15 14 13 12 12 11 11 11 10 10 10 9 8 8 8 8 8 7 6 6
21 20 19 20 20 19 20 20 19 19 20 21 22 22 24 23 23 22 21 20 19 18 17 16 15 15 13 12 11 11 11 11 10 9 9 9 9 9 10 10 9 8 7 6
19 19 19 20 18 18 19 19 19 20 19 20 21 21 25 23 22 22 22 20 19 18 17 16 16 15 14 13 11 11 10 10 10 10 8 8 8 8 8 8 8 7 6 6
20 18 19 19 19 18 18 20 22 20 19 18 21 20 23 24 22 21 21 20 18 17 16 16 16 15 14 13 11 10 10 10 10 9 8 7 7 7 7 7 6 6 5 5
21 19 19 18 19 20 20 19 19 18 19 20 20 19 21 23 22 21 20 19 18 17 16 16 15 15 14 13 12 11 10 10 10 9 8 7 6 6 6 5 5 5 4 3
19 18 19 18 17 17 18 18 16 14 17 18 20 19 22 23 21 20 18 17 17 17 15 15 14 14 13 13 12 12 11 10 9 9 8 7 6 5 4 4 4 4 3 2
17 19 19 17 16 17 18 17 17 15 16 14 18 21 22 23 22 20 19 19 18 16 15 15 14 14 13 12 12 12 11 10 10 8 8 6 4 3 3 4 2 2 2 1
16 15 18 17 17 17 17 17 15 15 12 14 18 19 20 21 22 21 20 18 17 16 16 15 14 13 12 12 12 11 10 10 9 8 6 4 3 2 3 3 3 2 1 0
16 14 16 17 18 18 17 17 16 17 16 14 14 17 21 20 20 20 19 17 17 16 15 14 13 13 12 11 10 10 9 8 7 6 4 2 2 1 3 2 0 0 0 -0
15 14 13 16 18 17 17 17 17 14 14 15 14 14 20 20 20 18 18 18 17 16 14 13 13 12 11 11 10 9 7 6 6 4 2 1 1 2 1 0 -0 -0 -1 -1
15 13 13 17 17 16 17 18 18 16 14 12 10 14 21 20 19 18 18 17 16 15 13 13 12 11 10 10 9 8 6 5 4 3 2 1 0 0 -0 -1 -1 -1 -2 -2
12 13 13 13 15 16 15 16 16 16 12 13 14 15 17 18 18 18 17 16 15 14 13 12 11 10 8 9 8 7 5 4 3 2 2 1 0 -0 -0 -1 -2 -2 -2 -2
13 12 13 14 15 15 15 15 15 15 15 13 15 16 17 17 18 17 15 14 13 12 12 11 9 7 7 7 7 6 4 3 2 2 1 -0 -0 -0 -1 -2 -2 -2 -3 -3
13 10 10 9 12 13 13 14 15 15 15 16 16 16 18 17 16 15 13 12 11 11 11 9 7 5 6 6 6 5 4 3 2 1 0 -0 -0 -1 -1 -2 -2 -3 -3 -3
11 8 8 8 12 9 8 10 13 15 16 16 15 16 16 16 14 13 12 11 10 10 9 7 5 5 6 5 5 4 3 1 -0 -0 -0 -1 -1 -2 -2 -2 -3 -3 -3 -4
9 7 6 7 8 9 15 17 17 16 16 16 16 16 14 13 12 11 10 9 6 5 6 4 4 5 4 3 3 2 0 -0 -1 -0 -0 -1 -1 -2 -3 -3 -3 -4 -4 -5
14 8 7 9 10 12 13 16 15 13 13 15 14 13 12 11 10 8 9 6 5 5 4 4 4 4 3 0 0 0 -0 -1 0 0 -1 -1 -2 -3 -3 -3 -4 -4 -5 -5
11 9 6 8 8 9 14 15 13 14 12 13 12 12 10 9 7 8 6 6 5 4 4 4 3 2 1 0 -1 -1 0 0 0 -1 -2 -2 -3 -3 -4 -4 -5 -5 -6 -6
7 6 6 7 7 10 14 15 12 10 12 11 11 10 9 9 8 7 5 4 4 4 4 2 2 1 -0 -1 -0 0 0 0 -0 -2 -3 -3 -3 -4 -5 -5 -6 -6 -7 -8
10 7 7 7 7 9 14 14 9 10 11 11 10 9 8 7 6 5 4 3 3 3 3 1 0 -0 -0 -0 -0 0 1 -0 -2 -3 -3 -3 -4 -5 -5 -6 -6 -7 -8 -8
9 11 11 11 12 14 14 13 12 12 11 9 7 9 7 6 6 5 3 3 3 2 1 -0 -1 -1 -1 -0 -0 -0 -1 -1 -2 -3 -4 -4 -5 -6 -6 -7 -7 -8 -7 -8
8 9 9 10 11 12 12 10 10 10 8 9 8 8 7 6 6 4 4 3 3 1 -0 -1 -1 -1 -0 -1 -1 -1 -2 -2 -3 -4 -5 -6 -6 -6 -7 -7 -8 -8 -9 -9
8 8 7 9 10 10 9 9 10 8 8 9 8 7 7 5 5 3 3 3 1 -0 -1 -1 -1 -0 -0 -1 -2 -3 -2 -3 -4 -5 -6 -6 -7 -7 -8 -8 -8 -9 -9 -10
7 7 6 6 8 8 9 10 10 9 7 7 7 7 7 6 4 3 2 0 -1 -1 -2 -1 -1 -1 -1 -2 -3 -4 -4 -4 -4 -5 -7 -7 -8 -8 -8 -8 -9 -9 -10 -10
Height
1532 1522 1530 1530 1531 1531 1529 1523 1516 1507 1512 1515 1504 1498 1488 1484 1487 1489 1492 1496 1498 1499 1500 1504 1508 1509 1509 1509 1509 1509 1509 1508 1509 1509 1509 1510 1509 1508 1508 1506 1504 1503 1503 1501
1528 1531 1536 1534 1532 1528 1520 1518 1513 1509 1507 1510 1499 1491 1483 1489 1491 1493 1494 1495 1497 1498 1498 1501 1503 1503 1504 1504 1504 1504 1504 1505 1505 1506 1505 1506 1505 1506 1506 1505 1502 1501 1500 1500
1532 1537 1539 1535 1529 1531 1520 1522 1522 1521 1511 1496 1497 1478 1477 1489 1488 1494 1496 1498 1498 1500 1500 1501 1501 1501 1501 1500 1501 1501 1502 1502 1501 1502 1502 1501 1500 1499 1499 1499 1499 1496 1496 1496
1534 1539 1539 1534 1532 1536 1525 1525 1526 1520 1515 1508 1499 1496 1478 1481 1485 1491 1495 1496 1498 1499 1500 1500 1500 1499 1499 1497 1497 1497 1498 1498 1498 1497 1497 1496 1496 1494 1494 1493 1494 1493 1493 1492
1539 1539 1539 1533 1540 1537 1530 1528 1524 1519 1520 1512 1500 1504 1469 1479 1484 1485 1490 1495 1496 1497 1498 1498 1498 1496 1495 1494 1492 1491 1492 1492 1492 1491 1489 1489 1487 1487 1488 1489 1489 1490 1489 1488
1539 1543 1540 1540 1538 1537 1533 1520 1507 1510 1516 1519 1498 1509 1481 1473 1483 1486 1489 1492 1496 1496 1497 1496 1495 1494 1492 1490 1489 1488 1488 1487 1486 1486 1483 1481 1481 1481 1482 1482 1482 1483 1483 1483
1532 1537 1541 1543 1536 1532 1528 1525 1525 1524 1515 1512 1501 1510 1487 1476 1481 1487 1491 1494 1496 1496 1496 1495 1493 1491 1489 1489 1487 1486 1484 1481 1480 1478 1477 1476 1476 1477 1476 1475 1475 1477 1476 1476
1540 1540 1539 1543 1543 1544 1536 1537 1542 1553 1529 1518 1503 1501 1481 1476 1483 1488 1492 1494 1494 1493 1494 1493 1490 1488 1486 1484 1482 1480 1477 1474 1473 1472 1471 1470 1470 1470 1470 1469 1469 1470 1470 1470
1549 1537 1538 1545 1546 1543 1534 1535 1536 1542 1533 1541 1510 1484 1476 1471 1480 1487 1490 1488 1488 1491 1490 1488 1486 1485 1482 1479 1477 1474 1471 1468 1466 1466 1465 1463 1462 1462 1462 1462 1463 1464 1464 1464
1555 1555 1540 1542 1544 1541 1540 1538 1541 1539 1550 1533 1501 1497 1484 1476 1473 1477 1482 1485 1489 1487 1484 1483 1482 1479 1478 1475 1471 1467 1464 1461 1460 1460 1458 1457 1457 1457 1457 1458 1459 1459 1459 1458
1556 1560 1547 1543 1534 1533 1536 1532 1536 1531 1532 1534 1522 1500 1477 1480 1482 1479 1482 1485 1482 1480 1480 1479 1478 1476 1472 1468 1464 1461 1458 1455 1453 1453 1452 1453 1453 1453 1453 1454 1455 1455 1453 1452
1560 1560 1559 1544 1532 1535 1533 1531 1529 1537 1531 1524 1520 1499 1480 1476 1480 1483 1480 1478 1477 1477 1476 1476 1475 1472 1467 1461 1458 1454 1451 1450 1449 1448 1449 1449 1450 1450 1451 1451 1451 1450 1447 1446
1562 1560 1559 1533 1533 1534 1529 1522 1522 1525 1528 1529 1538 1496 1471 1472 1476 1476 1473 1473 1473 1473 1473 1472 1470 1466 1462 1457 1452 1449 1446 1445 1444 1445 1446 1446 1446 1447 1448 1447 1446 1444 1442 1439
1570 1562 1561 1557 1543 1537 1537 1528 1519 1521 1531 1507 1508 1477 1478 1477 1474 1473 1471 1471 1470 1470 1469 1468 1464 1462 1459 1452 1447 1445 1443 1442 1442 1442 1443 1443 1443 1443 1443 1442 1440 1438 1436 1432
1564 1561 1554 1546 1541 1538 1532 1526 1514 1516 1509 1512 1478 1486 1472 1473 1470 1469 1470 1469 1469 1468 1466 1462 1460 1458 1453 1446 1443 1440 1440 1440 1440 1440 1439 1439 1438 1439 1438 1437 1435 1433 1429 1424
1559 1561 1558 1556 1546 1538 1531 1523 1511 1509 1501 1492 1483 1472 1475 1471 1471 1470 1473 1471 1468 1464 1460 1458 1455 1450 1446 1442 1438 1437 1437 1437 1438 1436 1434 1435 1435 1435 1434 1432 1429 1425 1421 1417
1556 1561 1561 1551 1541 1544 1542 1517 1506 1499 1492 1487 1482 1473 1471 1471 1472 1474 1471 1469 1464 1461 1458 1455 1450 1445 1441 1438 1435 1434 1435 1434 1431 1431 1431 1431 1431 1431 1429 1426 1423 1418 1414 1409
1554 1561 1564 1553 1547 1536 1500 1492 1490 1489 1486 1482 1478 1473 1474 1475 1474 1474 1473 1468 1463 1462 1456 1449 1443 1439 1437 1434 1432 1431 1429 1429 1428 1428 1429 1429 1428 1426 1424 1420 1416 1411 1406 1401
1539 1551 1555 1546 1532 1512 1507 1486 1489 1489 1486 1481 1477 1479 1476 1476 1469 1469 1467 1465 1459 1455 1450 1445 1439 1433 1430 1428 1428 1425 1424 1425 1425 1425 1425 1425 1424 1421 1418 1414 1409 1404 1399 1394
1543 1546 1554 1544 1535 1519 1493 1489 1489 1487 1481 1480 1481 1478 1479 1475 1468 1461 1461 1457 1452 1448 1443 1437 1432 1427 1423 1422 1421 1422 1423 1423 1422 1423 1422 1420 1418 1415 1411 1407 1402 1398 1393 1386
1549 1551 1545 1540 1533 1506 1489 1485 1487 1492 1482 1479 1479 1475 1472 1468 1466 1458 1454 1450 1447 1441 1436 1431 1427 1422 1421 1420 1421 1421 1421 1420 1420 1419 1418 1416 1413 1410 1406 1401 1397 1392 1386 1379
1537 1542 1535 1532 1523 1504 1483 1484 1496 1485 1476 1475 1471 1470 1466 1463 1457 1453 1447 1443 1438 1434 1431 1426 1420 1421 1420 1420 1420 1419 1418 1417 1416 1416 1415 1412 1409 1405 1400 1396 1391 1385 1380 1375
1529 1524 1513 1512 1492 1483 1480 1481 1481 1479 1471 1469 1470 1462 1460 1455 1450 1446 1440 1437 1433 1428 1424 1421 1421 1420 1420 1419 1418 1418 1417 1415 1414 1412 1411 1408 1405 1400 1396 1391 1385 1380 1377 1370
1521 1520 1511 1503 1491 1484 1482 1481 1479 1475 1472 1465 1463 1458 1453 1448 1443 1439 1435 1432 1428 1423 1421 1420 1419 1419 1419 1417 1417 1417 1414 1413 1411 1409 1406 1403 1400 1395 1391 1386 1382 1378 1373 1367
1516 1513 1505 1489 1485 1483 1481 1477 1473 1469 1466 1460 1456 1452 1447 1442 1438 1435 1431 1428 1424 1421 1420 1420 1420 1418 1417 1416 1416 1414 1412 1410 1408 1406 1402 1399 1395 1391 1386 1383 1379 1375 1370 1365
1505 1499 1497 1485 1485 1481 1470 1468 1467 1462 1459 1455 1451 1445 1442 1438 1433 1431 1428 1424 1421 1420 1420 1420 1419 1418 1416 1415 1414 1412 1410 1407 1405 1402 1399 1395 1390 1386 1384 1380 1375 1372 1366 1361
Wind_Speed
4 5 8 10 8 5 7 11 14 12 7 12 13 20 15 10 6 5 7 7 10 12 13 14 16 18 17 16 15 15 15 15 13 12 11 10 11 10 10 9 7 6 5 4
7 7 7 7 5 9 12 13 11 11 14 17 17 18 10 6 5 3 2 3 0 3 6 10 17 19 20 19 19 18 17 17 16 14 14 14 14 14 12 11 12 9 9 7
5 7 4 6 6 14 14 10 16 18 19 17 13 12 6 6 7 6 6 5 3 2 2 6 11 16 18 20 20 20 20 19 18 17 16 16 14 15 14 14 14 15 12 11
5 2 5 6 5 11 12 10 15 18 17 9 12 7 3 3 7 6 4 4 5 6 6 6 8 11 16 19 19 20 21 21 21 20 20 19 19 19 17 16 15 14 13 13
5 3 5 4 7 9 9 16 16 15 12 11 3 6 4 5 2 2 2 5 6 8 9 11 12 14 14 16 19 20 22 23 24 23 25 24 25 22 18 16 16 15 14 13
3 1 3 5 9 5 14 19 20 1 6 6 6 3 11 5 2 2 4 6 7 10 13 14 15 16 15 14 16 18 21 24 25 26 27 28 28 24 19 17 15 15 14 14
5 4 3 5 12 3 14 13 5 3 5 8 4 7 13 7 4 3 5 7 7 10 12 15 17 18 17 16 17 18 21 26 28 29 30 28 26 23 20 17 14 14 17 13
5 3 2 7 5 7 8 8 3 5 6 13 17 8 5 1 4 5 4 7 9 9 17 19 19 19 18 19 20 22 25 28 28 29 30 27 24 21 16 14 16 22 14 13
5 1 3 0 5 6 3 5 5 6 9 6 8 12 16 13 1 1 9 11 12 16 21 19 20 20 20 21 24 26 29 30 30 28 27 26 22 20 18 17 14 14 11 13
4 7 2 1 7 9 8 7 5 4 5 11 10 16 11 6 8 6 11 11 16 20 20 21 20 20 21 24 27 27 29 29 27 26 25 21 18 18 19 16 21 16 15 16
6 2 6 13 5 14 7 9 4 5 7 6 10 7 11 22 23 17 13 17 23 23 21 21 23 25 29 31 29 26 25 22 22 21 21 17 16 14 16 16 11 13 19 20
5 5 7 15 14 4 6 9 10 8 8 9 15 18 20 14 7 10 19 24 23 23 22 22 25 32 32 32 26 24 21 18 16 16 16 16 14 13 12 14 16 17 18 22
8 2 7 9 5 5 7 9 12 13 11 19 10 13 8 23 32 34 28 34 30 27 24 28 29 34 32 33 25 22 18 15 14 14 14 12 10 13 17 17 17 18 20 22
6 8 10 11 18 19 20 24 26 20 10 23 21 36 31 27 27 33 35 30 26 27 30 34 34 30 37 33 28 21 16 14 14 13 12 12 14 15 16 16 16 18 21 24
6 11 15 19 22 22 23 26 31 26 26 22 33 30 32 29 27 28 30 27 26 34 37 34 27 35 39 30 25 18 15 14 14 13 14 16 15 16 15 16 18 21 23 25
5 5 8 17 23 21 21 25 30 27 28 29 30 33 24 32 28 29 25 27 38 41 36 35 31 39 32 27 23 16 15 15 17 18 16 14 15 15 15 17 20 23 25 25
11 3 2 7 14 9 11 18 17 16 20 23 20 23 24 21 19 25 35 39 38 36 38 33 37 35 28 25 17 16 16 17 14 12 13 13 13 14 16 19 23 24 25 26
4 3 1 5 4 7 7 23 22 17 19 20 23 21 15 22 34 38 34 32 27 36 36 36 37 28 22 18 15 16 13 11 11 12 12 12 13 15 18 21 23 25 26 26
17 5 3 4 11 21 16 12 19 15 16 19 14 13 26 39 39 28 25 29 34 31 36 34 29 25 27 21 17 16 17 9 12 10 10 12 13 17 20 22 24 25 25 26
3 4 4 5 10 13 10 22 7 14 15 7 13 20 31 34 15 12 22 36 28 33 32 27 24 31 27 20 8 4 7 11 11 11 10 12 14 18 21 22 24 24 25 27
2 3 11 12 10 12 16 20 4 7 12 23 34 34 31 19 28 36 36 34 38 28 28 21 31 24 12 6 6 8 10 11 8 10 10 13 16 19 20 22 23 25 26 27
11 4 4 4 8 10 3 6 3 14 35 39 37 35 36 35 34 32 28 34 27 28 21 31 17 6 4 6 7 9 9 5 8 9 12 15 17 18 20 21 24 24 24 26
13 14 11 11 9 21 38 35 38 39 41 34 37 36 30 32 34 32 26 25 25 15 29 12 6 5 7 7 6 6 7 10 10 13 14 16 18 19 19 21 23 23 23 26
7 23 17 20 18 29 36 44 45 37 33 39 36 35 36 38 31 28 23 25 18 26 12 4 5 8 9 5 4 4 9 13 14 13 15 17 17 19 19 20 20 21 23 25
12 8 13 23 31 38 33 33 34 33 37 34 32 36 34 28 29 23 22 23 24 18 5 4 7 9 8 4 4 7 11 16 15 14 17 16 16 18 19 18 19 21 23 24
17 18 13 14 38 31 40 38 38 34 30 34 34 32 31 26 23 17 18 21 16 5 4 6 10 8 5 4 5 8 13 14 17 19 14 17 19 18 18 20 21 19 22 25
Wind_Direction
337 295 21 11 10 336 298 300 306 344 3 318 302 298 302 321 324 321 289 269 264 263 261 235 233 235 235 234 235 230 231 226 222 226 230 236 236 235 229 228 216 234 225 251
228 63 21 337 332 322 301 316 344 319 333 314 295 299 289 65 58 66 82 116 38 272 245 231 234 236 237 237 239 234 232 230 231 238 242 240 244 244 245 244 247 238 243 255
331 48 335 317 348 345 331 346 337 322 322 289 321 257 166 129 116 122 107 90 83 23 319 257 248 241 242 243 239 241 239 237 239 235 243 239 234 233 240 248 250 255 247 256
28 43 331 311 352 340 306 353 322 317 330 323 343 310 151 111 108 133 87 29 12 360 338 308 292 269 256 249 247 242 243 244 244 241 238 240 243 248 252 251 247 255 262 265
78 331 329 304 349 333 309 324 302 288 302 312 144 267 199 124 201 131 180 346 339 332 331 320 310 300 278 259 245 242 242 243 243 241 242 234 243 246 255 258 256 260 263 265
7 335 304 352 310 316 304 309 298 199 246 260 227 286 285 160 42 285 314 318 315 314 315 313 311 304 292 267 248 247 246 249 246 242 240 245 239 243 248 252 256 256 260 257
229 157 120 333 313 243 330 333 322 307 227 284 122 277 255 291 191 259 310 305 314 325 320 317 315 311 300 276 267 254 254 255 250 246 241 243 248 249 250 249 245 250 247 265
319 209 337 19 21 316 313 327 322 294 307 304 304 254 208 248 179 227 257 280 276 292 333 322 318 315 304 291 276 272 266 264 255 250 245 242 242 242 237 232 246 264 263 271
331 356 134 186 324 304 27 286 1 270 264 270 262 266 255 261 177 167 253 300 330 330 312 316 318 317 311 294 282 279 279 271 260 253 247 237 229 223 217 251 241 264 266 280
48 294 66 3 273 225 271 350 258 199 293 301 295 309 286 246 247 313 305 349 319 308 323 322 318 314 312 306 300 286 283 271 261 252 242 228 220 222 242 243 271 269 277 288
345 257 316 320 199 326 279 262 227 275 279 284 298 267 323 307 309 312 321 302 315 325 326 323 318 316 315 311 300 290 283 268 257 242 229 217 212 215 259 256 258 277 286 291
41 297 288 287 293 311 270 274 273 281 288 285 294 287 278 274 299 295 286 307 331 328 323 319 323 322 318 315 301 292 277 266 249 222 215 211 212 243 258 267 280 284 289 292
354 272 309 318 168 199 285 295 270 262 276 260 272 272 287 305 313 308 324 322 323 326 320 318 321 324 324 316 304 292 269 250 223 213 212 211 212 255 266 272 277 283 290 290
304 258 252 275 294 305 300 295 290 288 278 276 259 277 285 294 306 316 316 322 325 324 325 318 320 320 323 313 307 288 260 232 217 212 223 245 260 261 262 271 279 289 292 292
234 263 269 275 285 294 287 282 281 284 278 273 281 280 293 302 308 321 323 323 328 325 319 321 321 318 316 309 302 277 247 232 227 236 251 263 260 258 267 276 287 293 294 294
274 269 291 281 288 279 278 277 280 281 277 275 282 289 298 305 315 328 336 326 322 315 316 320 312 316 310 307 298 264 244 244 253 265 269 260 262 262 272 285 294 298 297 298
263 196 240 269 289 336 288 256 262 264 275 281 286 293 317 317 344 339 328 317 317 320 318 313 314 312 304 305 288 262 260 261 271 271 268 265 261 269 284 297 300 301 301 300
207 137 246 279 261 244 263 319 304 299 297 299 300 302 344 334 321 318 318 315 338 324 310 309 308 302 297 296 283 271 277 277 280 277 270 263 269 283 296 300 303 304 303 302
240 181 239 260 263 286 292 268 335 319 304 291 301 339 330 326 320 311 312 330 317 307 309 309 303 296 297 294 275 269 280 275 280 265 266 273 286 298 304 305 305 306 305 305
318 9 188 264 278 290 303 310 331 308 294 22 321 315 319 315 309 317 323 328 314 315 309 307 304 299 292 297 306 288 270 279 271 264 265 289 300 305 306 306 307 307 308 306
231 244 233 246 265 264 277 300 336 286 313 321 310 313 319 315 313 315 318 323 323 311 311 307 308 298 291 247 259 270 277 276 260 271 290 303 306 307 307 309 309 310 310 308
280 259 213 226 236 277 275 284 288 280 307 305 314 317 318 314 314 312 314 319 317 311 312 310 305 278 258 260 280 285 285 260 278 298 304 308 308 309 310 309 311 313 315 313
270 245 261 241 259 283 300 307 303 306 302 326 313 314 319 312 313 311 306 316 315 309 314 303 272 277 288 292 283 285 268 290 305 310 308 308 308 312 310 314 316 317 316 312
247 249 258 269 270 275 293 297 290 305 315 314 314 315 319 316 311 310 312 316 315 315 308 277 280 303 310 287 276 279 299 312 312 307 306 310 313 310 318 317 319 316 315 317
261 251 257 269 275 291 283 285 309 310 305 314 317 316 314 313 310 302 310 314 313 313 288 291 303 312 304 259 257 298 311 313 312 307 311 313 312 317 320 321 319 317 317 315
241 252 259 270 282 284 296 306 316 314 319 320 318 321 318 315 310 308 310 307 308 288 295 308 314 303 283 270 285 304 309 310 311 312 312 313 322 322 324 322 320 319 317 323